Location: Delettes
(50.6178°N, 2.2123°E)
Time: 17:39:00
(UTC+00:00)

Genesis I - Pass Details

Date: 27 February 2020
Orbit: 498 x 525 km, 64.5° (Epoch: 31 March)

Event Time Altitude Azimuth Distance (km) Brightness Sun altitude
Rises 18:07:53 0° 321° (NW) 2,640 7.3 -7.1°
Reaches altitude 10° 18:10:15 10° 332° (NNW) 1,744 6.2 -7.4°
Maximum altitude 18:13:46 31° 36° (NE) 916 4.1 -8.0°
Enters shadow 18:17:05 11° 99° (E) 1,671 5.1 -8.5°
